Location: Caltech
(34.1382°N, 118.1253°W)
Time: 08:09:59
(UTC-07:00)

AO-27 - Visible Passes

Search period start: 30 July 2014 00:00
Search period end: 09 August 2014 00:00
Orbit: 786 x 799 km, 98.7° (Epoch: 29 July)

Date Brightness Start Highest point End Pass type
(mag) Time Alt. Az. Time Alt. Az. Time Alt. Az.
30 Jul 9.5 02:13:59 10° NE 02:17:11 23° ENE 02:17:11 23° ENE visible
30 Jul 8.5 03:53:06 10° N 03:57:40 32° WNW 03:57:57 32° WNW visible
31 Jul 10.2 01:47:09 10° ENE 01:47:59 11° ENE 01:47:59 11° ENE visible
31 Jul 7.8 03:23:55 10° N 03:28:45 62° NW 03:28:45 62° NW visible
01 Aug 8.1 02:55:08 10° NNE 02:59:32 58° NE 02:59:32 58° NE visible
01 Aug 9.6 04:36:58 10° NW 04:39:11 13° WNW 04:40:19 12° WNW visible
02 Aug 9.1 02:26:47 10° NNE 02:30:20 30° ENE 02:30:20 30° ENE visible
02 Aug 8.9 04:06:38 10° NNW 04:10:44 24° WNW 04:11:06 24° WNW visible
03 Aug 10.0 01:59:09 10° NE 02:01:07 16° ENE 02:01:07 16° ENE visible
03 Aug 8.1 03:37:14 10° N 03:41:54 46° WNW 03:41:54 46° WNW visible
04 Aug 7.9 03:08:16 10° NNE 03:12:41 65° NNE 03:12:41 65° NNE visible
05 Aug 8.8 02:39:42 10° NNE 02:43:28 39° ENE 02:43:28 39° ENE visible
05 Aug 9.2 04:20:19 10° NNW 04:23:47 18° WNW 04:24:15 18° WNW visible
06 Aug 9.7 02:11:40 10° NE 02:14:16 21° ENE 02:14:16 21° ENE visible
06 Aug 8.5 03:50:38 10° N 03:55:02 34° WNW 03:55:02 34° WNW visible
07 Aug 8.0 03:21:29 10° N 03:25:49 58° NNW 03:25:49 58° NNW visible
08 Aug 8.5 02:52:44 10° NNE 02:56:36 47° NE 02:56:36 47° NE visible
08 Aug 9.5 04:34:18 10° NW 04:36:48 14° WNW 04:37:23 13° WNW visible
